Погода в Липтовски-Микулаше

Словакия     49°05′06″N   19°36′37″E
темп.,
°C
ветер,
м/с
пор.,
м/с
влажн.,
%
обл.,
%
осадки,
мм/ч
давл.,
гПа
погр.,
м
6 мая, чт
чт623:00+2з2696100 0.9 1010454
02:00−1з119611 1.1 101218
05:00−2зсз119734 0.0 101413
08:00+3юз12828 0.0 1014582
11:00+6зюз265484 0.0 10131528
14:00+8зюз5851100 0.1 10122064
17:00+5ююз368599 0.4 1012911
20:00+3ю2595100 0.8 1012182
7 мая, пт
пт723:00+2ююв2498100 0.1 101294
02:00+3ю3597100 0.6 1010398
05:00+2ю2499100 1.5 1009183
08:00+4юз2497100 1.5 1009254
11:00+6зюз3887100 0.4 10081069
14:00+7з4883100 1.1 10081182
17:00+5зсз268868 0.9 1010986
20:00+1зсз238994 1.6 101460
8 мая, сб
сб823:00−1зюз11925 0.0 101612
02:000сз239490 0.1 1018157
05:00−3ссз229766 0.1 102145
08:00+1ссз13786 0.2 1022587
11:00+7сз24456 0.0 10211515
14:00+9зсз3537100 0.0 10192490
17:00+8зсз453789 0.0 10192379
20:00+2з11641 0.0 102110
9 мая, вс
вс923:000ю116710 0.0 102412
02:000ююв2172100 0.0 102418
05:000ююв227581 0.0 102427
08:00+6ю345359 0.0 1022477
11:00+11ю354145 0.0 10211081
14:00+13ю454166 0.0 10201141
17:00+12ю454660 0.0 1019954
20:00+6ююв34825 0.0 102162
10 мая, пн
пн1023:00+3ююв34945 0.0 102261
02:00+3ююв34885 0.0 102166
05:00+3ююв349012 0.0 102070
08:00+10ююв36620 0.0 1017524
11:00+15ююв46485 0.0 1016969
14:00+18ююв48480 0.0 10151380
17:00+16ююв475947 0.0 10151367
20:00+12юв348610 0.0 1016134